Location: Grandview
(34.8900°N, 117.1058°W)
Time: 14:03:15
(UTC-08:00)

Vanguard 1 Rocket - Visible Passes

Search period start: 24 February 2018 00:00
Search period end: 06 March 2018 00:00
Orbit: 655 x 4222 km, 34.3° (Epoch: 23 February)

Date Brightness Start Highest point End Pass type
(mag) Time Alt. Az. Time Alt. Az. Time Alt. Az.
24 Feb 10.3 02:49:55 69° WSW 02:53:24 74° SSW 03:13:42 10° ESE visible
24 Feb 10.6 05:07:13 18° W 05:23:04 37° SW 05:37:27 10° SSE visible
24 Feb 10.6 17:58:19 10° SSE 18:06:10 18° ESE 18:17:00 10° E visible
24 Feb 10.0 20:17:43 10° SW 20:31:51 58° SE 20:35:04 54° ESE visible
24 Feb 10.6 22:43:25 10° WSW 23:25:35 19° E 23:29:59 10° E visible
25 Feb 10.4 01:42:53 69° SE 01:42:53 69° SE 02:01:13 10° ESE visible
25 Feb 10.4 04:00:12 39° W 04:10:04 53° SW 04:27:34 10° SSE visible
25 Feb 10.1 19:07:55 10° SSW 19:19:28 41° SE 19:28:25 29° E visible
25 Feb 10.0 21:31:32 10° WSW 22:18:37 - E 21:45:45 73° SSW visible
25 Feb 11.0 23:59:21 10° W 00:35:56 40° E 00:47:38 10° E visible
26 Feb 10.3 02:53:15 65° SW 02:55:53 67° SSW 03:16:27 10° SE visible
26 Feb 10.8 05:10:34 17° W 05:25:00 31° SW 05:39:09 10° S visible
26 Feb 10.3 17:59:32 10° S 18:08:12 24° SE 18:21:24 10° E visible
26 Feb 9.8 20:20:32 10° SW 20:34:21 65° SSE 20:39:02 56° ESE visible
26 Feb 10.5 22:46:37 10° W 23:29:04 18° E 23:33:00 10° E visible
27 Feb 10.5 01:46:23 65° SE 01:46:23 65° SE 02:04:08 10° ESE visible
27 Feb 10.5 04:03:42 37° WSW 04:12:11 46° SW 04:29:48 10° SSE visible
27 Feb 9.9 19:10:25 10° SSW 19:21:46 48° SE 19:32:16 29° E visible
27 Feb 9.9 21:34:41 10° WSW 22:22:16 - E 21:49:36 80° SSW visible
28 Feb 11.0 00:02:32 10° W 00:39:36 38° ESE 00:50:38 10° ESE visible
28 Feb 10.4 02:56:56 60° SW 02:58:13 60° SSW 03:18:58 10° SE visible
28 Feb 10.9 05:14:16 16° W 05:26:52 24° SW 05:40:17 10° S visible
28 Feb 10.1 18:01:24 10° S 18:10:21 30° SE 18:25:07 10° E visible
28 Feb 9.8 20:23:31 10° WSW 20:37:02 72° SSE 20:42:45 56° E visible
28 Feb 10.5 22:49:52 10° W 23:32:53 16° E 23:36:00 10° E visible
01 Mar 10.5 01:50:13 58° SSE 01:50:13 58° SSE 02:06:53 10° SE visible
01 Mar 10.7 04:07:34 34° WSW 04:14:10 39° SW 04:31:40 10° SSE visible
01 Mar 9.7 19:13:09 10° SW 19:24:15 56° SE 19:35:51 28° E visible
01 Mar 9.9 21:37:55 10° WSW 21:53:10 84° SW 21:53:10 84° SW visible
02 Mar 11.1 00:05:43 10° W 00:43:35 35° ESE 00:53:32 10° ESE visible
02 Mar 10.5 03:00:56 53° SW 03:00:56 53° SW 03:21:15 10° SSE visible
02 Mar 11.1 05:18:16 13° W 05:28:45 19° SW 05:40:29 10° SSW visible
02 Mar 9.8 18:03:42 10° SSW 18:12:39 37° SE 18:28:26 10° ENE visible
02 Mar 9.7 20:26:39 10° WSW 20:39:53 79° SSE 20:46:11 55° E visible
02 Mar 10.4 22:53:08 10° W 23:36:59 14° E 23:38:58 10° E visible
03 Mar 10.7 01:54:20 51° SSE 01:54:20 51° SSE 02:09:26 10° SE visible
03 Mar 10.8 04:11:41 30° WSW 04:16:06 32° SW 04:33:07 10° S visible
03 Mar 9.5 19:16:06 10° SW 19:26:55 64° SSE 19:39:08 28° E visible
03 Mar 9.9 21:41:12 10° W 21:56:25 86° WSW 21:56:25 86° WSW visible
04 Mar 11.1 00:08:54 10° W 00:47:47 30° ESE 00:56:17 10° ESE visible
04 Mar 10.6 03:05:08 45° SSW 03:05:08 45° SSW 03:23:13 10° SSE visible
04 Mar 11.3 05:22:29 10° WSW 05:30:41 13° WSW 05:38:41 10° SW visible
04 Mar 9.5 18:06:18 10° SSW 18:15:06 45° SE 18:31:32 10° ENE visible
04 Mar 9.7 20:29:53 10° WSW 20:42:51 83° SSE 20:49:19 55° E visible
04 Mar 10.4 22:56:24 10° W 23:41:14 11° ESE 23:41:51 10° ESE visible
05 Mar 10.8 01:58:36 42° SSE 01:58:36 42° SSE 02:11:44 10° SE visible
05 Mar 11.0 04:15:57 25° WSW 04:18:02 25° SW 04:33:57 10° S visible
05 Mar 9.4 19:19:11 10° WSW 19:29:45 72° SSE 19:42:08 28° E visible
05 Mar 9.9 21:44:31 10° W 21:59:26 86° WSW 21:59:26 86° WSW visible
